Location: Carrières
(48.9495°N, 2.0407°E)
Time: 20:29:27
(UTC+00:00)

Transit 2A - Pass Details

Date: 26 April 2024
Orbit: 594 x 957 km, 66.7° (Epoch: 18 May)

Event Time Altitude Azimuth Distance (km) Brightness Sun altitude
Rises 08:11:35 0° 293° (WNW) 2,996 8.6 33.3°
Reaches altitude 10° 08:15:24 10° 325° (NW) 2,166 8.0 33.9°
Maximum altitude 08:17:17 12° 347° (NNW) 2,075 8.1 34.2°
Drops below altitude 10° 08:19:13 10° 10° (N) 2,255 8.4 34.5°
Sets 08:23:26 0° 41° (NE) 3,286 9.5 35.1°
